Time,TemperatureF,DewpointF,PressureIn,WindDirection,WindDirectionDegrees,WindSpeedMPH,WindSpeedGustMPH,Humidity,HourlyPrecipIn,Conditions,Clouds,dailyrainin,SolarRadiationWatts/m^2,SoftwareType,DateUTC
2013-09-03 00:04:00,62.0,62.0,-100.00,NE,47,2.0,4.0,99,0.00,,,0.01,0.000000,,2013-09-03 04:04:00,
2013-09-03 00:44:00,62.0,62.0,-100.00,NE,43,4.0,5.0,99,0.00,,,0.01,0.000000,,2013-09-03 04:44:00,
2013-09-03 00:53:00,62.0,62.0,-100.00,NE,43,4.0,5.0,99,0.00,,,0.01,0.000000,,2013-09-03 04:53:00,
2013-09-03 01:03:00,62.0,62.0,-100.00,NE,43,4.0,5.0,99,0.00,,,0.01,0.000000,,2013-09-03 05:03:00,
2013-09-03 01:43:00,62.0,62.0,-100.00,NE,40,3.0,5.0,99,0.00,,,0.01,0.000000,,2013-09-03 05:43:00,
2013-09-03 01:52:00,62.0,62.0,-100.00,NE,40,3.0,5.0,99,0.00,,,0.01,0.000000,,2013-09-03 05:52:00,
2013-09-03 02:02:00,62.0,62.0,-100.00,NE,40,3.0,5.0,99,0.00,,,0.01,0.000000,,2013-09-03 06:02:00,
2013-09-03 02:43:00,62.0,62.0,-100.00,NE,39,2.0,4.0,99,0.00,,,0.01,0.000000,,2013-09-03 06:43:00,
2013-09-03 02:52:00,62.0,62.0,-100.00,NE,39,2.0,4.0,99,0.00,,,0.01,0.000000,,2013-09-03 06:52:00,
2013-09-03 03:02:00,62.0,62.0,-100.00,NE,39,2.0,4.0,99,0.00,,,0.01,0.000000,,2013-09-03 07:02:00,
2013-09-03 03:42:00,61.0,60.0,-100.00,NE,49,4.0,5.0,98,0.00,,,0.01,0.000000,,2013-09-03 07:42:00,
2013-09-03 03:53:00,61.0,60.0,-100.00,NE,49,4.0,5.0,98,0.00,,,0.01,0.000000,,2013-09-03 07:53:00,
2013-09-03 04:03:00,61.0,60.0,-100.00,NE,49,4.0,5.0,98,0.00,,,0.01,0.000000,,2013-09-03 08:03:00,
2013-09-03 04:42:00,61.0,61.0,-100.00,NNE,16,2.0,6.0,100,0.00,,,0.01,0.000000,,2013-09-03 08:42:00,
2013-09-03 04:52:00,61.0,61.0,-100.00,NNE,16,2.0,6.0,100,0.00,,,0.01,0.000000,,2013-09-03 08:52:00,
2013-09-03 05:02:00,61.0,61.0,-100.00,NNE,16,2.0,6.0,100,0.00,,,0.01,0.000000,,2013-09-03 09:02:00,
2013-09-03 05:43:00,62.0,62.0,-100.00,ENE,71,3.0,5.0,100,0.00,,,0.01,0.000000,,2013-09-03 09:43:00,
2013-09-03 05:53:00,62.0,62.0,-100.00,ENE,71,3.0,5.0,100,0.00,,,0.01,0.000000,,2013-09-03 09:53:00,
2013-09-03 06:03:00,62.0,62.0,-100.00,ENE,71,3.0,5.0,100,0.00,,,0.01,0.000000,,2013-09-03 10:03:00,
2013-09-03 06:42:00,63.0,63.0,-100.00,SW,236,0.0,6.0,100,0.00,,,0.00,0.000000,,2013-09-03 10:42:00,
2013-09-03 06:53:00,63.0,63.0,-100.00,SW,236,0.0,6.0,100,0.00,,,0.00,0.000000,,2013-09-03 10:53:00,
2013-09-03 07:03:00,63.0,63.0,-100.00,SW,236,0.0,6.0,100,0.00,,,0.00,0.000000,,2013-09-03 11:03:00,
2013-09-03 07:43:00,58.0,57.0,-100.00,NNE,33,10.0,28.0,96,0.46,,,0.46,0.000000,,2013-09-03 11:43:00,
2013-09-03 07:52:00,58.0,57.0,-100.00,NNE,33,10.0,28.0,96,0.46,,,0.46,0.000000,,2013-09-03 11:52:00,
2013-09-03 08:02:00,58.0,57.0,-100.00,NNE,33,10.0,28.0,96,0.46,,,0.46,0.000000,,2013-09-03 12:02:00,
2013-09-03 08:42:00,57.0,57.0,-100.00,NE,40,3.0,13.0,99,0.01,,,0.47,6.000000,,2013-09-03 12:42:00,
2013-09-03 08:52:00,57.0,57.0,-100.00,NE,40,3.0,13.0,99,0.01,,,0.47,6.000000,,2013-09-03 12:52:00,
2013-09-03 09:02:00,57.0,57.0,-100.00,NE,40,3.0,13.0,99,0.01,,,0.47,6.000000,,2013-09-03 13:02:00,
2013-09-03 09:42:00,58.0,58.0,-100.00,NNE,28,3.0,5.0,99,0.00,,,0.47,47.000000,,2013-09-03 13:42:00,
2013-09-03 09:52:00,58.0,58.0,-100.00,NNE,28,3.0,5.0,99,0.00,,,0.47,47.000000,,2013-09-03 13:52:00,
2013-09-03 10:02:00,58.0,58.0,-100.00,NNE,28,3.0,5.0,99,0.00,,,0.47,47.000000,,2013-09-03 14:02:00,
2013-09-03 10:42:00,66.0,63.0,-100.00,NNW,331,2.0,6.0,90,0.00,,,0.47,267.000000,,2013-09-03 14:42:00,
2013-09-03 10:52:00,66.0,63.0,-100.00,NNW,331,2.0,6.0,90,0.00,,,0.47,267.000000,,2013-09-03 14:52:00,
2013-09-03 11:02:00,66.0,63.0,-100.00,NNW,331,2.0,6.0,90,0.00,,,0.47,267.000000,,2013-09-03 15:02:00,
2013-09-03 11:43:00,70.0,65.0,-100.00,North,349,3.0,5.0,84,0.00,,,0.47,566.000000,,2013-09-03 15:43:00,
2013-09-03 11:54:00,70.0,65.0,-100.00,North,349,3.0,5.0,84,0.00,,,0.47,566.000000,,2013-09-03 15:54:00,
2013-09-03 12:04:00,70.0,65.0,-100.00,North,349,3.0,5.0,84,0.00,,,0.47,566.000000,,2013-09-03 16:04:00,
2013-09-03 12:43:00,73.0,67.0,-100.00,NNW,341,3.0,12.0,81,0.00,,,0.47,706.000000,,2013-09-03 16:43:00,
2013-09-03 12:54:00,73.0,67.0,-100.00,NNW,341,3.0,12.0,81,0.00,,,0.47,706.000000,,2013-09-03 16:54:00,
2013-09-03 13:03:00,73.0,67.0,-100.00,NNW,341,3.0,12.0,81,0.00,,,0.47,706.000000,,2013-09-03 17:03:00,
2013-09-03 13:43:00,74.0,66.0,-100.00,West,263,3.0,7.0,77,0.00,,,0.47,871.000000,,2013-09-03 17:43:00,
2013-09-03 13:52:00,74.0,66.0,-100.00,West,263,3.0,7.0,77,0.00,,,0.47,871.000000,,2013-09-03 17:52:00,
2013-09-03 14:02:00,74.0,66.0,-100.00,West,263,3.0,7.0,77,0.00,,,0.47,871.000000,,2013-09-03 18:02:00,
2013-09-03 14:43:00,77.0,67.0,-100.00,SW,232,3.0,9.0,72,0.00,,,0.47,891.000000,,2013-09-03 18:43:00,
2013-09-03 14:52:00,77.0,67.0,-100.00,SW,232,3.0,9.0,72,0.00,,,0.47,891.000000,,2013-09-03 18:52:00,
2013-09-03 15:02:00,77.0,67.0,-100.00,SW,232,3.0,9.0,72,0.00,,,0.47,891.000000,,2013-09-03 19:02:00,
2013-09-03 15:42:00,77.0,65.0,-100.00,WSW,249,3.0,8.0,67,0.00,,,0.47,890.000000,,2013-09-03 19:42:00,
2013-09-03 15:52:00,77.0,65.0,-100.00,WSW,249,3.0,8.0,67,0.00,,,0.47,890.000000,,2013-09-03 19:52:00,
2013-09-03 16:02:00,77.0,65.0,-100.00,WSW,249,3.0,8.0,67,0.00,,,0.47,890.000000,,2013-09-03 20:02:00,
2013-09-03 16:42:00,77.0,64.0,-100.00,WNW,301,3.0,9.0,64,0.00,,,0.47,769.000000,,2013-09-03 20:42:00,
2013-09-03 16:53:00,77.0,64.0,-100.00,WNW,301,3.0,9.0,64,0.00,,,0.47,769.000000,,2013-09-03 20:53:00,
2013-09-03 17:02:00,77.0,64.0,-100.00,WNW,301,3.0,9.0,64,0.00,,,0.47,769.000000,,2013-09-03 21:02:00,
2013-09-03 17:44:00,76.0,64.0,-100.00,WSW,242,2.0,7.0,66,0.00,,,0.47,641.000000,,2013-09-03 21:44:00,
2013-09-03 17:54:00,76.0,64.0,-100.00,WSW,242,2.0,7.0,66,0.00,,,0.47,641.000000,,2013-09-03 21:54:00,
2013-09-03 18:04:00,76.0,64.0,-100.00,WSW,242,2.0,7.0,66,0.00,,,0.47,641.000000,,2013-09-03 22:04:00,
2013-09-03 18:43:00,74.0,63.0,-100.00,SW,216,2.0,7.0,69,0.00,,,0.47,460.000000,,2013-09-03 22:43:00,
2013-09-03 18:53:00,74.0,63.0,-100.00,SW,216,2.0,7.0,69,0.00,,,0.47,460.000000,,2013-09-03 22:53:00,
2013-09-03 19:04:00,74.0,63.0,-100.00,SW,216,2.0,7.0,69,0.00,,,0.47,460.000000,,2013-09-03 23:04:00,
2013-09-03 19:42:00,66.0,61.0,-100.00,South,184,1.0,6.0,85,0.00,,,0.47,83.000000,,2013-09-03 23:42:00,
2013-09-03 19:54:00,66.0,61.0,-100.00,South,184,1.0,6.0,85,0.00,,,0.47,83.000000,,2013-09-03 23:54:00,
2013-09-03 20:02:00,66.0,61.0,-100.00,South,184,1.0,6.0,85,0.00,,,0.47,83.000000,,2013-09-04 00:02:00,
2013-09-03 20:52:00,63.0,59.0,-100.00,SW,223,1.0,4.0,86,0.00,,,0.47,12.000000,,2013-09-04 00:52:00,
2013-09-03 21:02:00,63.0,59.0,-100.00,SW,223,1.0,4.0,86,0.00,,,0.47,12.000000,,2013-09-04 01:02:00,
2013-09-03 21:42:00,62.0,59.0,-100.00,ESE,111,0.0,4.0,91,0.00,,,0.47,0.000000,,2013-09-04 01:42:00,
2013-09-03 21:53:00,62.0,59.0,-100.00,ESE,111,0.0,4.0,91,0.00,,,0.47,0.000000,,2013-09-04 01:53:00,
2013-09-03 22:02:00,62.0,59.0,-100.00,ESE,111,0.0,4.0,91,0.00,,,0.47,0.000000,,2013-09-04 02:02:00,
2013-09-03 22:43:00,61.0,60.0,-100.00,NE,46,3.0,4.0,95,0.00,,,0.47,0.000000,,2013-09-04 02:43:00,
2013-09-03 22:52:00,61.0,60.0,-100.00,NE,46,3.0,4.0,95,0.00,,,0.47,0.000000,,2013-09-04 02:52:00,
2013-09-03 23:03:00,61.0,60.0,-100.00,NE,46,3.0,4.0,95,0.00,,,0.47,0.000000,,2013-09-04 03:03:00,
2013-09-03 23:44:00,62.0,61.0,-100.00,NNW,337,1.0,4.0,95,0.00,,,0.47,0.000000,,2013-09-04 03:44:00,
2013-09-03 23:55:00,62.0,61.0,-100.00,NNW,337,1.0,4.0,95,0.00,,,0.47,0.000000,,2013-09-04 03:55:00,